Time,TemperatureF,DewpointF,PressureIn,WindDirection,WindDirectionDegrees,WindSpeedMPH,WindSpeedGustMPH,Humidity,HourlyPrecipIn,Conditions,Clouds,dailyrainin,SoftwareType,DateUTC
2013-01-01 00:10:00,14.4,12.0,30.48,ESE,122,2.0,2.0,88,0.00,,,0.00,weatherlink.com 1.10,2013-01-01 08:10:00,
2013-01-01 00:25:00,14.3,11.0,30.48,SE,125,1.0,3.0,88,0.00,,,0.00,weatherlink.com 1.10,2013-01-01 08:25:00,
2013-01-01 00:40:00,14.4,11.0,30.49,SSE,158,0.0,2.0,87,0.00,,,0.00,weatherlink.com 1.10,2013-01-01 08:40:00,
2013-01-01 00:56:00,13.2,10.0,30.50,SE,131,0.0,2.0,88,0.00,,,0.00,weatherlink.com 1.10,2013-01-01 08:56:00,
2013-01-01 01:11:00,13.5,11.0,30.51,SE,144,0.0,1.0,90,0.00,,,0.00,weatherlink.com 1.10,2013-01-01 09:11:00,
2013-01-01 01:26:00,12.7,10.0,30.52,SE,143,0.0,1.0,89,0.00,,,0.00,weatherlink.com 1.10,2013-01-01 09:26:00,
2013-01-01 01:41:00,11.9,10.0,30.53,SE,143,0.0,1.0,90,0.00,,,0.00,weatherlink.com 1.10,2013-01-01 09:41:00,
2013-01-01 01:56:00,9.9,7.0,30.53,SSE,155,1.0,2.0,89,0.00,,,0.00,weatherlink.com 1.10,2013-01-01 09:56:00,
2013-01-01 02:11:00,8.8,6.0,30.53,SSE,153,0.0,1.0,89,0.00,,,0.00,weatherlink.com 1.10,2013-01-01 10:11:00,
2013-01-01 02:26:00,8.4,6.0,30.53,East,87,1.0,2.0,90,0.00,,,0.00,weatherlink.com 1.10,2013-01-01 10:26:00,
2013-01-01 02:41:00,10.1,8.0,30.54,East,87,0.0,1.0,92,0.00,,,0.00,weatherlink.com 1.10,2013-01-01 10:41:00,
2013-01-01 02:56:00,11.4,9.0,30.54,East,87,0.0,5.0,91,0.00,,,0.00,weatherlink.com 1.10,2013-01-01 10:56:00,
2013-01-01 03:11:00,11.7,9.0,30.54,ESE,122,1.0,2.0,90,0.00,,,0.00,weatherlink.com 1.10,2013-01-01 11:11:00,
2013-01-01 03:26:00,12.8,11.0,30.55,ESE,103,0.0,2.0,91,0.00,,,0.00,weatherlink.com 1.10,2013-01-01 11:26:00,
2013-01-01 03:41:00,11.9,9.0,30.54,ESE,103,0.0,1.0,88,0.00,,,0.00,weatherlink.com 1.10,2013-01-01 11:41:00,
2013-01-01 03:56:00,7.8,3.0,30.57,NNW,334,0.0,4.0,81,0.00,,,0.00,weatherlink.com 1.10,2013-01-01 11:56:00,
2013-01-01 04:11:00,5.4,2.0,30.58,SSE,153,3.0,5.0,87,0.00,,,0.00,weatherlink.com 1.10,2013-01-01 12:11:00,
2013-01-01 04:26:00,5.3,3.0,30.56,SE,140,0.0,2.0,90,0.00,,,0.00,weatherlink.com 1.10,2013-01-01 12:26:00,
2013-01-01 04:41:00,5.8,3.0,30.56,NNE,13,0.0,2.0,89,0.00,,,0.00,weatherlink.com 1.10,2013-01-01 12:41:00,
2013-01-01 04:56:00,5.9,3.0,30.57,East,97,1.0,3.0,87,0.00,,,0.00,weatherlink.com 1.10,2013-01-01 12:56:00,
2013-01-01 05:11:00,7.4,5.0,30.57,SSE,153,0.0,1.0,90,0.00,,,0.00,weatherlink.com 1.10,2013-01-01 13:11:00,
2013-01-01 05:26:00,8.0,5.0,30.56,SSE,149,3.0,6.0,86,0.00,,,0.00,weatherlink.com 1.10,2013-01-01 13:26:00,
2013-01-01 05:41:00,7.1,4.0,30.58,South,176,0.0,3.0,87,0.00,,,0.00,weatherlink.com 1.10,2013-01-01 13:41:00,
2013-01-01 05:56:00,6.4,4.0,30.57,ESE,115,1.0,3.0,89,0.00,,,0.00,weatherlink.com 1.10,2013-01-01 13:56:00,
2013-01-01 06:11:00,7.2,5.0,30.58,ESE,115,0.0,3.0,89,0.00,,,0.00,weatherlink.com 1.10,2013-01-01 14:11:00,
2013-01-01 06:26:00,6.9,4.0,30.58,SSE,147,3.0,4.0,88,0.00,,,0.00,weatherlink.com 1.10,2013-01-01 14:26:00,
2013-01-01 06:41:00,7.5,5.0,30.58,SSE,151,2.0,6.0,89,0.00,,,0.00,weatherlink.com 1.10,2013-01-01 14:41:00,
2013-01-01 06:56:00,8.6,6.0,30.59,SSE,154,0.0,3.0,90,0.00,,,0.00,weatherlink.com 1.10,2013-01-01 14:56:00,
2013-01-01 07:11:00,7.1,4.0,30.59,SE,139,3.0,5.0,88,0.00,,,0.00,weatherlink.com 1.10,2013-01-01 15:11:00,
2013-01-01 07:26:00,7.2,4.0,30.59,ENE,75,0.0,4.0,88,0.00,,,0.00,weatherlink.com 1.10,2013-01-01 15:26:00,
2013-01-01 07:41:00,6.8,4.0,30.58,SE,139,0.0,3.0,88,0.00,,,0.00,weatherlink.com 1.10,2013-01-01 15:41:00,
2013-01-01 07:56:00,8.4,6.0,30.58,ENE,60,0.0,5.0,90,0.00,,,0.00,weatherlink.com 1.10,2013-01-01 15:56:00,
2013-01-01 08:11:00,10.3,8.0,30.59,SE,140,0.0,2.0,91,0.00,,,0.00,weatherlink.com 1.10,2013-01-01 16:11:00,
2013-01-01 08:26:00,9.7,7.0,30.60,SE,132,0.0,2.0,90,0.00,,,0.00,weatherlink.com 1.10,2013-01-01 16:26:00,
2013-01-01 08:42:00,11.5,9.0,30.60,ESE,102,0.0,4.0,90,0.00,,,0.00,weatherlink.com 1.10,2013-01-01 16:42:00,
2013-01-01 08:57:00,10.0,7.0,30.61,ESE,123,1.0,2.0,88,0.00,,,0.00,weatherlink.com 1.10,2013-01-01 16:57:00,
2013-01-01 09:12:00,11.8,10.0,30.61,SE,141,0.0,1.0,90,0.00,,,0.00,weatherlink.com 1.10,2013-01-01 17:12:00,
2013-01-01 09:27:00,13.6,12.0,30.61,SW,236,0.0,1.0,91,0.00,,,0.00,weatherlink.com 1.10,2013-01-01 17:27:00,
2013-01-01 09:42:00,13.7,11.0,30.63,WNW,301,0.0,1.0,88,0.00,,,0.00,weatherlink.com 1.10,2013-01-01 17:42:00,
2013-01-01 09:57:00,10.6,6.0,30.65,SSW,210,0.0,3.0,83,0.00,,,0.00,weatherlink.com 1.10,2013-01-01 17:57:00,
2013-01-01 10:12:00,12.6,11.0,30.63,North,4,0.0,5.0,91,0.00,,,0.00,weatherlink.com 1.10,2013-01-01 18:12:00,
2013-01-01 10:27:00,15.9,14.0,30.65,North,354,1.0,4.0,91,0.00,,,0.00,weatherlink.com 1.10,2013-01-01 18:27:00,
2013-01-01 10:42:00,15.8,12.0,30.64,WNW,285,0.0,4.0,86,0.00,,,0.00,weatherlink.com 1.10,2013-01-01 18:42:00,
2013-01-01 10:57:00,21.6,17.0,30.63,SSE,148,5.0,10.0,83,0.00,,,0.00,weatherlink.com 1.10,2013-01-01 18:57:00,
2013-01-01 11:12:00,24.1,18.0,30.62,SE,146,8.0,11.0,77,0.00,,,0.00,weatherlink.com 1.10,2013-01-01 19:12:00,
2013-01-01 11:27:00,25.1,18.0,30.62,South,170,3.0,10.0,73,0.00,,,0.00,weatherlink.com 1.10,2013-01-01 19:27:00,
2013-01-01 11:42:00,25.6,18.0,30.61,SW,233,1.0,6.0,73,0.00,,,0.00,weatherlink.com 1.10,2013-01-01 19:42:00,
2013-01-01 11:57:00,27.3,18.0,30.59,South,181,3.0,7.0,68,0.00,,,0.00,weatherlink.com 1.10,2013-01-01 19:57:00,
2013-01-01 12:12:00,27.4,18.0,30.59,South,190,2.0,10.0,68,0.00,,,0.00,weatherlink.com 1.10,2013-01-01 20:12:00,
2013-01-01 12:27:00,28.1,18.0,30.59,South,178,2.0,7.0,67,0.00,,,0.00,weatherlink.com 1.10,2013-01-01 20:27:00,
2013-01-01 12:43:00,26.7,18.0,30.58,SSW,200,3.0,10.0,69,0.00,,,0.00,weatherlink.com 1.10,2013-01-01 20:43:00,
2013-01-01 12:57:00,27.1,18.0,30.57,ESE,123,6.0,8.0,69,0.00,,,0.00,weatherlink.com 1.10,2013-01-01 20:57:00,
2013-01-01 13:12:00,29.7,19.0,30.56,SSE,167,3.0,9.0,65,0.00,,,0.00,weatherlink.com 1.10,2013-01-01 21:12:00,
2013-01-01 13:27:00,30.1,19.0,30.55,SE,135,6.0,12.0,63,0.00,,,0.00,weatherlink.com 1.10,2013-01-01 21:27:00,
2013-01-01 13:42:00,30.3,19.0,30.55,South,190,4.0,10.0,63,0.00,,,0.00,weatherlink.com 1.10,2013-01-01 21:42:00,
2013-01-01 13:57:00,30.3,19.0,30.56,SW,217,4.0,5.0,64,0.00,,,0.00,weatherlink.com 1.10,2013-01-01 21:57:00,
2013-01-01 14:12:00,23.8,16.0,30.57,WNW,292,2.0,5.0,71,0.00,,,0.00,weatherlink.com 1.10,2013-01-01 22:12:00,
2013-01-01 14:27:00,22.2,15.0,30.57,NW,311,0.0,2.0,74,0.00,,,0.00,weatherlink.com 1.10,2013-01-01 22:27:00,
2013-01-01 14:42:00,22.9,16.0,30.57,NW,310,0.0,1.0,75,0.00,,,0.00,weatherlink.com 1.10,2013-01-01 22:42:00,
2013-01-01 14:57:00,22.9,15.0,30.56,NW,311,0.0,1.0,72,0.00,,,0.00,weatherlink.com 1.10,2013-01-01 22:57:00,
2013-01-01 15:12:00,21.8,15.0,30.56,NW,311,0.0,2.0,75,0.00,,,0.00,weatherlink.com 1.10,2013-01-01 23:12:00,
2013-01-01 15:28:00,22.0,15.0,30.57,NW,310,0.0,1.0,74,0.00,,,0.00,weatherlink.com 1.10,2013-01-01 23:28:00,
2013-01-01 15:43:00,21.3,15.0,30.57,NW,310,1.0,1.0,75,0.00,,,0.00,weatherlink.com 1.10,2013-01-01 23:43:00,
2013-01-01 15:58:00,21.6,15.0,30.57,NW,311,0.0,1.0,76,0.00,,,0.00,weatherlink.com 1.10,2013-01-01 23:58:00,
2013-01-01 16:13:00,22.4,15.0,30.57,NW,311,1.0,1.0,73,0.00,,,0.00,weatherlink.com 1.10,2013-01-02 00:13:00,
2013-01-01 16:28:00,18.6,13.0,30.59,NW,309,0.0,0.0,79,0.00,,,0.00,weatherlink.com 1.10,2013-01-02 00:28:00,
2013-01-01 16:43:00,16.8,13.0,30.61,NW,309,1.0,1.0,83,0.00,,,0.00,weatherlink.com 1.10,2013-01-02 00:43:00,
2013-01-01 16:58:00,14.6,11.0,30.61,NW,309,0.0,1.0,86,0.00,,,0.00,weatherlink.com 1.10,2013-01-02 00:58:00,
2013-01-01 17:13:00,13.9,11.0,30.61,NW,314,0.0,2.0,89,0.00,,,0.00,weatherlink.com 1.10,2013-01-02 01:13:00,
2013-01-01 17:28:00,13.7,11.0,30.61,NW,314,0.0,0.0,88,0.00,,,0.00,weatherlink.com 1.10,2013-01-02 01:28:00,
2013-01-01 17:43:00,13.9,11.0,30.61,NW,314,0.0,1.0,88,0.00,,,0.00,weatherlink.com 1.10,2013-01-02 01:43:00,
2013-01-01 17:58:00,13.4,11.0,30.62,NW,313,0.0,1.0,90,0.00,,,0.00,weatherlink.com 1.10,2013-01-02 01:58:00,
2013-01-01 18:13:00,14.3,12.0,30.62,NW,314,0.0,1.0,90,0.00,,,0.00,weatherlink.com 1.10,2013-01-02 02:13:00,
2013-01-01 18:28:00,14.7,12.0,30.62,NW,314,0.0,1.0,90,0.00,,,0.00,weatherlink.com 1.10,2013-01-02 02:28:00,
2013-01-01 18:43:00,17.3,14.0,30.61,SSE,147,1.0,4.0,87,0.00,,,0.00,weatherlink.com 1.10,2013-01-02 02:43:00,
2013-01-01 18:58:00,18.9,15.0,30.61,SE,142,2.0,4.0,84,0.00,,,0.00,weatherlink.com 1.10,2013-01-02 02:58:00,
2013-01-01 19:13:00,18.7,14.0,30.62,SSE,149,3.0,7.0,83,0.00,,,0.00,weatherlink.com 1.10,2013-01-02 03:13:00,
2013-01-01 19:28:00,16.4,10.0,30.62,West,263,0.0,5.0,77,0.00,,,0.00,weatherlink.com 1.10,2013-01-02 03:28:00,
2013-01-01 19:43:00,13.2,10.0,30.62,South,179,0.0,3.0,87,0.00,,,0.00,weatherlink.com 1.10,2013-01-02 03:43:00,
2013-01-01 19:58:00,9.3,6.0,30.63,South,179,0.0,0.0,86,0.00,,,0.00,weatherlink.com 1.10,2013-01-02 03:58:00,
2013-01-01 20:13:00,7.4,5.0,30.63,South,176,0.0,1.0,88,0.00,,,0.00,weatherlink.com 1.10,2013-01-02 04:13:00,
2013-01-01 20:28:00,6.6,4.0,30.63,South,176,0.0,0.0,87,0.00,,,0.00,weatherlink.com 1.10,2013-01-02 04:28:00,
2013-01-01 20:43:00,6.9,4.0,30.63,South,176,0.0,0.0,89,0.00,,,0.00,weatherlink.com 1.10,2013-01-02 04:43:00,
2013-01-01 20:58:00,7.9,5.0,30.63,South,174,0.0,1.0,88,0.00,,,0.00,weatherlink.com 1.10,2013-01-02 04:58:00,
2013-01-01 21:13:00,8.0,6.0,30.64,South,175,0.0,0.0,90,0.00,,,0.00,weatherlink.com 1.10,2013-01-02 05:13:00,
2013-01-01 21:28:00,7.3,4.0,30.63,SSW,196,0.0,0.0,86,0.00,,,0.00,weatherlink.com 1.10,2013-01-02 05:28:00,
2013-01-01 21:43:00,6.1,3.0,30.64,SSW,195,0.0,0.0,88,0.00,,,0.00,weatherlink.com 1.10,2013-01-02 05:43:00,
2013-01-01 21:58:00,8.5,6.0,30.64,SE,130,0.0,0.0,91,0.00,,,0.00,weatherlink.com 1.10,2013-01-02 05:58:00,
2013-01-01 22:13:00,10.4,8.0,30.64,SSE,167,0.0,2.0,89,0.00,,,0.00,weatherlink.com 1.10,2013-01-02 06:13:00,
2013-01-01 22:28:00,12.1,10.0,30.64,ESE,113,0.0,3.0,91,0.00,,,0.00,weatherlink.com 1.10,2013-01-02 06:28:00,
2013-01-01 22:43:00,10.7,8.0,30.66,North,351,0.0,2.0,88,0.00,,,0.00,weatherlink.com 1.10,2013-01-02 06:43:00,
2013-01-01 22:58:00,11.4,9.0,30.65,SE,143,0.0,3.0,91,0.00,,,0.00,weatherlink.com 1.10,2013-01-02 06:58:00,
2013-01-01 23:13:00,10.8,8.0,30.64,SSW,211,0.0,1.0,89,0.00,,,0.00,weatherlink.com 1.10,2013-01-02 07:13:00,
2013-01-01 23:28:00,12.1,10.0,30.64,SSE,149,1.0,2.0,92,0.00,,,0.00,weatherlink.com 1.10,2013-01-02 07:28:00,
2013-01-01 23:43:00,14.1,12.0,30.63,SE,143,0.0,4.0,90,0.00,,,0.00,weatherlink.com 1.10,2013-01-02 07:43:00,
2013-01-01 23:58:00,14.5,12.0,30.63,SSE,166,2.0,6.0,91,0.00,,,0.00,weatherlink.com 1.10,2013-01-02 07:58:00,